SL-14 R/B, 27061

Orbit data source: Space-Track

SL-14 R/B, 27061 is space debris in LEO originally from a launch on Fri, 28 Dec 2001 UTC launched from the Plesetsk Missile And Space Complex (PKMTR). Debris objects in space refer to the collection of defunct objects orbiting the Earth. Examples of debris include non-operational satellites, rocket bodies, and fragments generated from explosions, collisions, or faulty payload assembly.

Loading next visibility...
Identifier
27061, 2001-058G
Orbit
LEO
Country
Flag of CISCIS
Related business
Manufacturer
Yuzhnoe
Mission
Spacecraft
Bus & Motor
S5M, Unknown motor
Mass
1,600 kg wet, 1,600 kg dry
Launch date (UTC)
2001-12-28 (24 years ago)
Launch vehicle
Unknown
Launch site
Plesetsk Missile And Space Complex (PKMTR)
Object type
Payload
Rocket body
Debris
Shape & HBR
Cyl, 1.4 m
Radar Cross Section
7.351 m², Large (>1 m²)

Expand to show TLE details & history
Last TLE update: 8 hours ago

TLE from 8 hours ago
0 SL-14 R/B
1 27061U 01058G   25355.25147709  .00000032  00000-0  13052-3 0  9994
2 27061  82.5447  46.6395 0044081 149.7913 274.5397 12.53955288 97722
Epoch: 2025-12-21T06:02Z
TLE epoch observation values (Epoch: 2025-12-21T06:02:07.620Z)
Latitude
62.94224°
Longitude
-119.1896°
Altitude
1,456.189 km
Speed
7.141 km/s
True Right ascension
04h 05m 38s
True Declination
62° 48' 54"
Sunlit
Object was in full shadow at epoch
Visualization orbit readout
Latitude
Unknown
Longitude
Unknown
Altitude
Unknown
Speed
Unknown
Apparent Right ascension
Unknown
Apparent Declination
Unknown
Sunlit
N/A
Visualization observer readout
Local Sidereal Time
13:05:02
Azimuth
Unknown
Elevation
Unknown
Doppler factor
Unknown
Orbital elements
Apogee altitude
1,479.815 km
Perigee altitude
1,410.842 km
Semi-major axis
7,823.465 km
Eccentricity
0.00441
Inclination
82.5447°
RAAN
46.6395°
Arg. of periapsis
149.7913°
True anomaly
274.03594°
Mean anomaly
274.5397°
Eccentric anomaly
274.28784°
Mean motion
3.13649 °/min
Orbital period
114.78 mins
BSTAR
0.00013052
Loading maneuver chart data...
Computing Atmospheric mass density...
Loading historical data...
Loading historical data...
Loading historical data...
Loading historical data...
Loading historical data...
Loading historical data...
Loading historical data...

Documentation

Showing up to 5 results
|